User: anonymous   Login
Location: Agendoh
(31.0664°N, 8.9343°W)
Time: 08:37:59
(UTC+00:00)
Language:

Cosmos 1602 - Orbit

View from above orbital plane
View from above orbital plane
View from above satellite
View from above satellite

Ground track
Ground track

The orbit data is extracted from the following two-line orbital elements,

1 15331U 84105A   22147.85065237  .00004819  00000-0  25033-3 0  9991
2 15331  82.5374 353.6483 0014519 158.5446 201.6399 15.15785125 54750
Epoch (UTC): 27 May 2022 20:24:56
Eccentricity: 0.0014519
inclination: 82.5374°
perigee height: 508 km
apogee height: 528 km
right ascension of ascending node: 353.6483°
argument of perigee: 158.5446°
revolutions per day: 15.15785125
mean anomaly at epoch: 201.6399°
orbit number at epoch: 5475

The dashed part of the orbit path shows where the satellite is in the earth's shadow,  

DLR